EW5897 Weather Reports


Display with metric or nautical units.
time (UTC)temp
F
wind
direction
speed
MPH
gust
MPH
rain 1hr
in
rain 24hr
in
rain mn
in
humidity
%
barometer
mb
20260905201433 83 182 3.0 7.0 0.00 0.00 0.00 59 1009.4
20260905195424 83 152 3.0 9.0 0.00 0.00 0.00 61 1009.6
20260905193431 81 214 1.0 10.0 0.00 0.00 0.00 62 1009.7
20260905191439 81 217 3.0 10.0 0.00 0.00 0.00 65 1009.8
20260905185932 80 216 4.0 11.0 0.00 0.00 0.00 66 1010.0
20260905183933 80 241 5.0 11.0 0.00 0.00 0.00 66 1010.2
20260905182429 79 194 7.0 12.0 0.00 0.00 0.00 68 1010.4
20260905180926 79 199 5.0 13.0 0.00 0.00 0.00 67 1010.4
20260905175425 78 137 3.0 10.0 0.00 0.00 0.00 67 1010.5
20260905172922 77 167 4.0 10.0 0.00 0.00 0.00 68 1010.4
20260905171412 76 182 6.0 9.0 0.00 0.00 0.00 69 1010.3
20260905165432 75 114 4.0 8.0 0.00 0.00 0.00 70 1010.3
20260905163908 75 109 3.0 10.0 0.00 0.00 0.00 70 1010.3
20260905161922 74 90 4.0 8.0 0.00 0.00 0.00 73 1010.4
20260905160415 74 103 2.0 9.0 0.00 0.00 0.00 74 1010.4
20260905154914 72 139 2.0 9.0 0.00 0.00 0.00 81 1010.5
20260905152929 68 67 1.0 4.0 0.00 0.00 0.00 96 1010.4
20260905150925 65 123 3.0 6.0 0.00 0.00 0.00 98 1010.3
20260905144927 63 86 2.0 6.0 0.00 0.00 0.00 98 1010.5
20260905143423 62 83 3.0 6.0 0.00 0.00 0.00 98 1010.5
20260905141435 60 59 0.0 0.0 0.00 0.00 0.00 98 1010.7
20260905135428 59 65 0.0 0.0 0.00 0.00 0.00 97 1010.7
20260905133419 59 66 0.0 2.0 0.00 0.00 0.00 97 1010.2
20260905130437 59 37 0.0 2.0 0.00 0.00 0.00 97 1010.3
20260905124927 59 37 0.0 1.0 0.00 0.00 0.00 97 1010.6
20260905123421 59 37 1.0 3.0 0.00 0.00 0.00 97 1010.3
20260905121433 58 32 0.0 2.0 0.00 0.00 0.00 97 1010.0
20260905115932 58 38 0.0 1.0 0.00 0.00 0.00 97 1010.0
20260905113932 58 47 0.0 1.0 0.00 0.00 0.00 97 1009.8
20260905111924 58 57 2.0 4.0 0.00 0.00 0.00 97 1009.4
20260905105926 57 49 2.0 5.0 0.00 0.00 0.00 97 1009.4
20260905103925 56 36 3.0 5.0 0.00 0.00 0.00 96 1008.8
20260905101923 56 56 2.0 4.0 0.00 0.00 0.00 96 1008.7
20260905100418 56 51 3.0 5.0 0.00 0.00 0.00 96 1008.6
20260905094910 56 57 3.0 6.0 0.00 0.00 0.00 96 1008.7
20260905092933 57 5 2.0 4.0 0.00 0.00 0.00 95 1009.0
20260905091429 57 71 2.0 5.0 0.00 0.00 0.00 95 1009.0
20260905085925 58 34 2.0 4.0 0.00 0.00 0.00 95 1009.0
20260905084412 58 52 3.0 4.0 0.00 0.00 0.00 95 1009.0
20260905082421 59 62 4.0 8.0 0.00 0.00 0.00 95 1009.1
20260905080423 59 66 5.0 8.0 0.00 0.00 0.00 95 1009.3
20260905074915 60 32 3.0 6.0 0.00 0.00 0.00 94 1009.7
20260905072919 60 54 5.0 7.0 0.00 0.00 0.00 94 1010.0
20260905070933 61 22 4.0 7.0 0.00 0.00 0.00 93 1010.1
20260905065427 61 34 2.0 6.0 0.00 0.00 0.00 93 1010.2
20260905063916 62 63 2.0 5.0 0.00 0.00 0.00 93 1010.1
20260905061933 62 82 5.0 10.0 0.00 0.00 0.00 93 1009.7
20260905055944 62 86 5.0 9.0 0.00 0.00 0.00 92 1009.7
20260905054424 63 93 7.0 10.0 0.00 0.00 0.00 92 1009.4
20260905052914 63 76 7.0 11.0 0.00 0.00 0.00 91 1009.5
20260905050933 64 84 6.0 11.0 0.00 0.00 0.00 91 1009.7
20260905045430 64 84 7.0 13.0 0.00 0.00 0.00 91 1009.7
20260905043417 64 91 8.0 14.0 0.00 0.00 0.00 90 1009.7
20260905041917 64 78 10.0 13.0 0.00 0.00 0.00 91 1009.9
20260905040409 64 69 7.0 12.0 0.00 0.00 0.00 90 1010.0
20260905034435 63 73 8.0 12.0 0.00 0.00 0.00 90 1010.0
20260905032929 63 70 7.0 12.0 0.00 0.00 0.00 91 1010.1
20260905031427 62 74 6.0 10.0 0.00 0.00 0.00 91 1010.1
20260905024939 62 56 5.0 7.0 0.00 0.00 0.00 91 1010.0
20260905022937 63 59 4.0 7.0 0.00 0.00 0.00 90 1010.0
20260905021435 63 53 3.0 5.0 0.00 0.00 0.00 89 1010.0
20260905015915 64 54 4.0 5.0 0.00 0.00 0.00 88 1009.8
20260905013929 66 60 3.0 5.0 0.00 0.00 0.00 84 1009.7
20260905012416 69 86 3.0 7.0 0.00 0.00 0.00 80 1009.4
20260905010434 72 105 8.0 13.0 0.00 0.00 0.00 74 1009.1
20260905004930 73 118 9.0 15.0 0.00 0.00 0.00 72 1009.0
20260905002924 75 74 12.0 17.0 0.00 0.00 0.00 69 1009.0
20260905001422 76 78 11.0 18.0 0.00 0.00 0.00 69 1008.8
20260904235419 76 104 12.0 18.0 0.00 0.00 0.00 66 1008.7
20260904232925 77 77 13.0 18.0 0.00 0.00 0.00 67 1008.8
20260904230427 78 85 14.0 21.0 0.00 0.00 0.00 64 1008.9
20260904224922 78 98 13.0 19.0 0.00 0.00 0.00 63 1008.9
20260904223413 78 109 12.0 19.0 0.00 0.00 0.00 63 1009.0
20260904221419 78 81 12.0 21.0 0.00 0.00 0.00 64 1009.1
20260904215435 78 94 14.0 19.0 0.00 0.00 0.00 63 1009.0
20260904213924 78 81 13.0 18.0 0.00 0.00 0.00 64 1009.0
20260904211924 78 75 13.0 19.0 0.00 0.00 0.00 63 1009.1
20260904210422 77 96 10.0 19.0 0.00 0.00 0.00 69 1009.1
20260904204434 77 91 11.0 19.0 0.00 0.00 0.00 66 1009.3
20260904202422 77 74 10.0 18.0 0.00 0.00 0.00 68 1009.8